TimeEST,TemperatureF,Dew PointF,Humidity,Sea Level PressureIn,VisibilityMPH,Wind Direction,Wind SpeedMPH,Gust SpeedMPH,PrecipitationIn,Events,Conditions,WindDirDegrees,DateUTC
12:55 AM,35.2,31.1,85,30.27,10.0,NNW,8.1,-,N/A,,Overcast,330,2012-11-16 05:55:00
1:55 AM,35.2,30.9,84,30.29,10.0,NNW,5.8,-,N/A,,Scattered Clouds,330,2012-11-16 06:55:00
2:55 AM,35.1,30.7,84,30.29,10.0,NNW,5.8,-,N/A,,Overcast,330,2012-11-16 07:55:00
3:55 AM,34.3,28.8,80,30.28,10.0,NNW,5.8,-,N/A,,Overcast,340,2012-11-16 08:55:00
4:55 AM,33.8,26.8,75,30.29,10.0,NW,5.8,-,N/A,,Mostly Cloudy,310,2012-11-16 09:55:00
5:55 AM,34.0,25.9,72,30.29,10.0,Calm,Calm,-,N/A,,Overcast,0,2012-11-16 10:55:00
6:55 AM,34.0,27.1,76,30.29,10.0,NNW,5.8,-,N/A,,Overcast,340,2012-11-16 11:55:00
7:55 AM,36.9,28.6,72,30.31,10.0,NNW,8.1,-,N/A,,Overcast,340,2012-11-16 12:55:00
8:55 AM,38.5,27.5,65,30.32,10.0,NNW,5.8,-,N/A,,Overcast,340,2012-11-16 13:55:00
9:55 AM,41.0,27.1,58,30.33,10.0,North,9.2,-,N/A,,Mostly Cloudy,350,2012-11-16 14:55:00
10:55 AM,43.3,26.4,51,30.32,10.0,North,8.1,-,N/A,,Overcast,360,2012-11-16 15:55:00
11:55 AM,44.1,27.3,52,30.31,10.0,North,8.1,-,N/A,,Mostly Cloudy,10,2012-11-16 16:55:00
12:55 PM,43.9,28.2,54,30.31,10.0,NNW,6.9,-,N/A,,Scattered Clouds,340,2012-11-16 17:55:00
1:55 PM,44.2,28.4,54,30.31,10.0,NW,5.8,-,N/A,,Mostly Cloudy,320,2012-11-16 18:55:00
2:55 PM,46.8,27.9,48,30.31,10.0,North,6.9,-,N/A,,Mostly Cloudy,360,2012-11-16 19:55:00
3:55 PM,45.0,27.9,51,30.32,10.0,NNW,6.9,-,N/A,,Clear,340,2012-11-16 20:55:00
4:55 PM,38.8,26.6,61,30.33,10.0,North,5.8,-,N/A,,Clear,10,2012-11-16 21:55:00
5:55 PM,38.8,26.2,61,30.35,10.0,NW,3.5,-,N/A,,Clear,310,2012-11-16 22:55:00
6:55 PM,35.2,26.8,71,30.37,10.0,Calm,Calm,-,N/A,,Clear,0,2012-11-16 23:55:00
7:55 PM,33.1,27.7,81,30.38,10.0,Calm,Calm,-,N/A,,Clear,0,2012-11-17 00:55:00
8:55 PM,32.5,26.2,78,30.40,10.0,Calm,Calm,-,N/A,,Clear,0,2012-11-17 01:55:00
9:55 PM,31.1,26.4,83,30.41,10.0,Calm,Calm,-,N/A,,Clear,0,2012-11-17 02:55:00
10:55 PM,31.8,23.7,72,30.41,10.0,NW,4.6,-,N/A,,Clear,320,2012-11-17 03:55:00
11:55 PM,30.4,23.7,76,30.43,10.0,Variable,5.8,-,N/A,,Clear,0,2012-11-17 04:55:00